Temperature
10 11 11 11 11 11 11 11 11 11 11 11 11 11 10 10 10 10 10 10 10 10 10 10 10 10 10 10 9 9 9 9 9 9 8 9 9 9 8 8 8 8 8
9 10 10 10 11 11 11 11 11 11 11 11 11 10 10 10 10 10 10 10 10 10 10 9 9 9 9 9 9 9 9 8 8 8 7 7 8 8 8 8 8 7 7
9 9 9 10 10 10 11 10 10 11 10 10 10 10 10 10 10 9 10 9 9 9 9 9 9 9 9 9 9 8 8 8 8 7 7 7 7 7 7 7 7 7 7
8 8 9 9 10 10 10 10 10 10 10 10 10 10 10 10 10 9 9 9 9 9 9 9 9 9 8 8 8 8 8 8 7 7 7 6 6 5 6 6 7 7 6
8 8 8 9 9 10 10 10 10 10 10 9 9 9 9 9 9 9 9 9 8 8 8 8 8 8 8 8 8 8 7 7 7 7 6 6 6 5 5 5 6 6 6
7 7 7 8 8 9 9 10 9 9 9 9 9 9 9 9 9 9 9 8 8 8 8 8 8 8 8 8 7 7 7 7 6 6 6 6 5 5 5 4 5 5 5
7 7 7 7 8 8 9 9 9 9 9 9 9 9 9 9 9 9 8 8 8 8 8 8 8 7 7 7 7 7 7 6 6 6 6 5 5 5 5 4 4 4 5
6 6 7 7 7 8 8 8 9 9 9 9 9 9 8 8 8 8 8 8 8 8 8 7 7 7 7 7 7 7 6 6 6 6 5 5 5 5 4 4 3 3 3
6 6 6 6 7 7 7 8 8 8 8 8 8 8 8 8 8 8 8 8 8 7 7 7 7 7 7 6 6 6 6 6 6 5 5 5 5 4 4 4 3 3 2
5 5 6 6 6 7 7 7 7 8 8 8 8 8 8 8 8 7 8 7 7 7 7 7 7 7 6 6 6 6 6 5 5 5 5 5 4 4 4 3 3 3 2
5 5 5 6 6 6 6 7 7 7 7 7 7 7 7 7 7 7 7 7 7 7 7 7 6 6 6 6 6 5 5 5 5 5 4 4 4 4 3 3 3 2 2
4 4 5 5 5 5 6 6 6 6 6 7 7 7 7 7 7 7 7 7 7 7 7 6 6 6 6 6 5 5 5 5 4 4 4 4 4 3 3 3 3 2 2
4 4 4 4 5 5 5 5 6 6 6 6 6 6 6 6 6 6 6 6 6 6 6 6 6 6 5 5 5 5 5 4 4 4 4 3 3 3 3 2 2 2 1
3 3 4 4 4 4 5 5 5 5 5 6 6 6 6 6 6 6 6 6 6 6 6 5 5 5 5 5 5 4 4 4 4 4 3 3 3 3 2 2 2 1 1
3 3 3 3 4 4 4 4 5 5 5 5 6 6 6 5 5 5 5 5 5 5 5 5 5 5 5 5 4 4 4 4 4 3 3 3 3 3 2 2 1 1 0
3 3 3 3 4 4 4 4 4 4 5 5 5 5 5 5 5 5 5 5 5 5 5 5 4 4 4 4 4 4 4 3 3 3 3 3 3 2 2 1 1 1 0
2 2 3 3 3 3 3 3 4 4 4 4 4 5 5 5 4 4 4 4 4 4 4 4 4 4 4 4 4 3 3 3 3 3 2 2 2 2 1 1 1 0 0
2 2 2 3 3 3 3 3 3 4 4 4 4 4 4 4 4 4 4 4 4 4 4 4 4 4 3 3 3 3 3 3 2 2 2 2 2 1 1 1 1 0 0
2 2 2 2 2 3 3 3 3 3 3 3 4 4 4 4 4 3 4 3 3 3 3 3 3 3 3 3 3 2 2 2 2 2 2 1 1 1 1 0 0 0 -0
1 1 2 2 2 2 2 2 3 3 3 3 3 3 3 3 3 3 3 3 3 3 3 3 3 3 3 3 2 2 2 1 2 1 1 1 1 1 0 -0 -0 -0 -0
1 1 1 2 2 2 2 2 2 3 3 3 3 3 3 3 3 3 3 3 2 2 2 2 2 2 2 2 2 1 1 1 1 1 1 1 1 0 0 -0 -0 -1 -1
0 1 1 1 1 2 2 2 2 2 2 2 2 2 2 2 2 2 2 2 2 2 2 2 2 1 1 1 1 1 1 1 1 1 1 1 0 0 0 -0 -1 -1 -1
-0 -0 0 1 1 1 1 1 2 2 1 1 2 1 1 1 1 1 1 1 1 1 1 1 1 1 1 0 0 0 0 0 0 0 0 0 -0 -0 -0 -1 -1 -1 -1
-1 -0 0 0 1 1 1 1 1 1 1 1 1 1 1 1 1 1 1 1 1 1 1 0 0 0 0 -0 -0 -0 -0 -0 -0 -0 -0 -0 -0 -0 -1 -1 -1 -1 -2
-1 -1 -1 0 0 1 1 1 1 1 1 1 0 0 0 0 0 0 0 0 0 0 0 -0 -0 -0 -0 -0 -1 -1 -1 -1 -1 -1 -1 -1 -1 -1 -1 -1 -1 -2 -2
-2 -1 -1 -0 -0 -0 0 0 0 0 0 -0 -0 -0 -0 -0 -0 -0 -0 -1 -0 -0 -0 -1 -1 -1 -1 -1 -1 -1 -1 -1 -1 -1 -1 -1 -2 -2 -2 -2 -2 -2 -2
Wind_Speed
6 6 6 7 8 9 10 11 11 11 9 8 7 6 5 5 4 4 4 4 4 4 3 2 2 1 1 1 1 1 2 2 3 2 2 2 2 2 3 4 4 5 6
4 5 6 7 8 10 11 12 12 12 11 8 7 5 5 4 4 4 4 4 4 3 2 2 1 1 1 1 1 1 1 1 2 2 3 2 2 1 3 3 4 6 6
6 6 7 7 8 9 11 11 12 12 12 10 7 6 5 4 4 4 4 4 4 3 3 2 2 1 1 0 0 0 1 1 1 2 2 2 3 5 3 4 4 6 6
5 6 6 7 8 8 8 10 11 12 12 11 10 10 7 6 6 5 4 4 4 4 3 3 2 1 1 1 0 0 1 1 1 1 1 2 3 3 4 4 5 7 8
5 5 6 7 7 7 7 8 11 11 12 11 11 10 8 6 5 5 6 5 4 4 3 3 2 2 1 1 1 0 1 1 1 1 2 2 3 4 5 6 7 7 6
3 4 3 4 5 6 6 7 10 11 11 11 11 10 10 8 8 7 6 5 4 3 4 3 3 2 2 2 1 1 1 1 1 2 2 2 3 4 5 6 9 9 8
2 3 3 4 5 6 7 7 9 10 11 11 11 10 10 9 9 8 7 6 4 4 4 4 3 3 2 2 2 2 2 2 2 2 2 3 4 4 5 7 8 9 9
2 2 3 4 5 6 7 8 9 9 10 11 10 9 9 7 6 7 6 6 5 4 4 4 4 3 3 2 2 2 2 2 2 3 3 3 4 4 5 6 7 9 8
1 2 2 3 4 5 6 7 8 9 9 10 10 9 9 8 7 7 6 5 4 4 5 4 4 4 3 3 3 2 2 2 3 3 4 4 4 4 5 6 6 7 9
0 1 1 2 3 4 5 6 7 7 8 8 8 7 8 8 7 6 6 5 5 4 5 4 4 4 3 3 3 2 3 3 3 3 4 5 4 5 5 5 6 7 8
0 0 0 1 2 3 4 5 6 6 6 7 7 8 7 7 7 6 6 5 5 5 5 5 4 4 3 3 3 3 3 4 4 4 5 5 6 5 5 5 6 7 7
1 0 0 1 1 2 3 3 4 5 5 6 6 7 7 7 6 6 6 5 5 5 5 4 4 4 3 3 3 3 4 4 5 5 6 6 5 6 6 6 7 7 8
1 1 1 1 1 2 2 2 3 4 4 5 5 6 7 7 6 6 5 5 5 5 4 4 4 3 3 3 3 4 4 4 5 5 6 6 6 7 6 7 7 7 8
1 1 1 0 1 1 1 2 2 2 3 4 4 5 6 6 6 6 5 5 5 5 4 4 3 3 3 3 3 3 4 5 5 5 6 7 7 7 8 7 8 8 8
2 1 1 1 0 0 0 1 1 2 2 3 3 4 5 5 5 5 5 5 4 4 4 3 3 3 2 3 3 3 4 4 5 5 6 6 7 8 8 7 8 8 8
2 1 1 1 1 0 0 1 1 1 2 2 2 3 4 5 5 5 5 4 4 4 3 3 3 3 2 2 3 4 4 4 5 5 6 6 7 7 9 10 10 10 9
3 2 2 2 1 1 1 1 2 2 2 2 2 3 4 4 5 5 5 4 4 4 3 3 3 3 2 2 3 4 3 4 4 5 6 5 6 7 7 8 9 10 11
3 3 2 2 1 1 1 1 1 2 2 2 2 2 3 4 4 5 4 4 4 3 3 3 3 2 2 2 3 3 3 4 4 5 6 6 7 6 7 8 8 9 9
3 3 2 1 1 0 0 1 2 2 2 1 1 2 3 4 4 4 4 4 3 3 2 2 2 2 2 1 2 3 3 3 4 5 5 6 6 7 9 8 8 9 8
3 2 1 0 0 0 1 1 1 1 1 1 1 2 3 3 4 4 4 3 3 3 2 2 2 2 2 1 2 3 2 3 4 4 5 5 7 8 9 7 7 8 9
3 2 1 0 0 0 1 1 1 1 1 0 1 1 2 3 3 3 3 3 2 2 2 1 1 1 1 1 2 3 3 3 4 4 4 4 7 8 9 8 7 8 9
2 2 1 1 1 1 1 1 1 1 1 1 1 2 2 2 2 3 2 3 3 2 1 1 0 0 1 1 2 3 4 4 4 4 4 4 6 8 8 7 7 9 8
2 2 2 2 1 1 1 1 0 1 2 2 2 2 2 2 2 2 2 3 2 2 1 1 0 1 1 1 2 3 3 4 3 3 5 6 7 7 5 6 7 6 4
3 2 2 2 1 1 1 1 1 2 2 2 2 2 2 2 2 2 2 2 2 2 1 1 0 1 1 1 2 2 2 3 3 3 4 5 5 5 5 5 5 4 4
3 2 2 2 2 2 2 2 1 2 2 2 2 2 2 2 2 2 1 0 0 1 1 1 1 1 1 2 3 3 3 3 3 3 3 3 3 3 4 4 4 4 4
2 2 2 2 2 2 2 1 1 2 3 2 2 2 2 2 2 2 2 3 2 2 2 1 1 1 2 3 3 3 4 4 3 2 2 2 3 3 4 4 5 4 5
Wind_Direction
210 195 190 185 184 182 182 180 175 170 165 162 162 160 160 156 152 147 146 149 146 143 134 125 120 111 97 60 39 31 19 7 343 317 321 303 284 296 309 312 319 322 325
199 191 187 184 185 184 184 185 182 177 176 176 170 165 156 158 155 149 151 158 157 153 148 145 143 138 131 96 54 23 355 1 351 324 312 309 287 295 308 308 312 317 321
209 202 195 191 188 188 189 188 185 182 181 173 158 144 141 146 160 167 166 170 170 164 163 166 156 154 176 171 67 327 319 334 351 347 320 307 305 316 292 307 308 315 317
220 209 203 201 198 194 190 191 187 185 180 175 173 170 176 179 183 175 172 170 174 173 175 175 174 173 179 184 208 281 291 281 310 339 334 309 304 299 303 300 306 314 313
225 216 212 207 200 190 185 187 187 185 181 182 183 183 186 184 171 168 171 172 173 178 180 180 180 185 189 192 202 220 251 268 280 292 299 291 286 279 287 299 308 312 311
222 217 211 202 193 185 181 180 186 185 183 185 187 189 187 182 174 175 176 179 179 182 184 186 187 192 193 196 208 220 230 246 258 270 273 280 283 294 293 293 303 308 308
202 203 196 195 191 186 185 183 185 186 185 186 189 190 190 188 186 183 184 184 185 190 193 191 195 196 197 197 203 219 232 238 250 262 271 274 278 284 287 287 296 302 303
205 208 202 197 194 189 187 186 187 187 186 186 188 189 190 191 192 190 188 191 193 194 191 195 199 201 202 203 207 220 235 245 253 264 271 274 277 278 278 283 293 299 300
224 215 204 196 193 188 188 189 186 186 187 186 185 188 189 191 190 189 191 192 190 187 189 194 197 199 204 210 216 228 238 252 262 267 272 277 279 278 279 279 280 285 296
251 205 196 194 192 185 183 182 182 183 185 184 184 185 187 189 189 187 189 188 186 183 184 191 193 195 203 209 219 235 245 257 266 271 274 280 281 280 278 276 275 273 279
251 199 194 184 175 161 165 169 175 175 179 182 182 182 183 184 186 187 189 186 181 182 186 189 191 196 206 215 225 241 249 259 271 274 277 282 283 282 281 279 274 273 275
313 17 119 132 137 144 151 162 171 172 176 179 179 181 177 179 183 185 185 182 180 181 185 186 191 199 209 220 232 246 252 262 272 278 281 284 284 282 284 284 280 279 279
7 26 56 119 134 140 145 155 165 168 170 172 174 176 176 178 183 183 181 180 179 179 182 187 196 205 215 227 240 253 257 263 271 276 279 283 285 285 287 288 286 285 285
12 22 21 83 115 133 151 155 159 162 166 167 171 177 180 181 182 179 178 179 180 180 183 192 201 210 220 230 244 257 263 269 276 277 278 280 281 284 289 290 291 293 294
344 346 340 350 22 90 155 155 148 150 158 166 172 181 181 178 174 173 175 176 179 182 184 190 198 209 220 230 252 265 267 272 280 283 282 281 285 290 290 291 296 298 295
317 320 314 311 312 307 222 179 160 152 155 164 173 172 172 173 173 173 172 174 177 179 182 190 199 212 226 243 265 276 268 272 277 286 291 291 287 291 291 293 296 296 292
305 301 284 273 277 272 245 207 176 158 155 153 160 169 171 175 175 173 174 179 179 180 187 195 202 221 238 243 264 281 277 274 279 286 294 299 299 298 297 298 298 295 288
293 291 292 299 297 293 282 176 160 155 157 158 164 173 171 173 176 177 181 185 184 184 191 201 209 229 247 253 275 287 278 281 285 286 290 296 304 308 308 307 305 303 300
293 287 279 283 271 263 31 147 152 153 162 173 183 180 178 175 180 185 184 183 182 186 195 206 212 234 252 260 290 295 284 284 291 294 293 296 300 311 314 311 307 308 311
320 318 310 330 173 128 130 147 157 161 181 200 197 182 183 182 187 188 180 176 179 186 189 203 216 232 252 271 287 295 280 286 295 299 298 299 304 312 314 310 308 308 314
335 344 352 20 51 133 146 152 158 180 190 179 154 159 173 180 179 173 168 163 164 170 181 194 220 237 263 254 270 290 286 286 294 300 304 307 313 315 313 311 305 308 314
2 6 13 24 39 116 143 150 165 169 129 129 132 140 152 159 166 158 153 155 156 162 170 169 169 303 295 295 292 298 306 310 298 302 308 315 321 321 318 316 320 321 318
4 16 42 49 48 72 110 132 167 140 130 126 126 127 127 134 148 148 147 152 155 161 162 158 176 322 324 322 324 325 328 330 320 315 325 325 323 322 322 335 336 331 326
3 16 39 44 36 34 40 60 112 138 137 133 125 123 123 122 122 124 136 149 160 163 163 170 214 306 322 330 333 324 322 328 327 324 330 335 338 338 340 339 341 339 332
358 11 24 24 21 36 50 59 93 134 134 128 125 125 121 120 115 105 100 137 180 198 187 204 220 256 294 321 331 328 325 320 320 330 338 345 345 347 347 343 342 339 337
359 8 18 25 25 37 50 52 79 133 136 134 131 125 120 118 116 108 80 58 55 40 27 18 324 319 328 331 337 342 346 348 354 353 349 343 339 338 336 334 335 336 337
Height
1475 1476 1478 1480 1482 1485 1488 1490 1493 1496 1498 1501 1503 1506 1508 1510 1511 1513 1514 1514 1515 1515 1516 1516 1516 1516 1516 1515 1515 1515 1514 1513 1512 1511 1510 1508 1507 1506 1505 1503 1502 1500 1498
1472 1473 1475 1477 1479 1481 1485 1488 1490 1493 1496 1499 1501 1504 1506 1508 1509 1511 1511 1512 1513 1513 1514 1514 1514 1514 1514 1514 1513 1513 1512 1512 1511 1510 1509 1508 1508 1505 1503 1501 1499 1498 1496
1469 1470 1472 1474 1476 1478 1481 1484 1487 1490 1493 1496 1499 1501 1504 1505 1507 1508 1509 1510 1511 1511 1512 1512 1512 1512 1512 1512 1512 1511 1511 1510 1510 1509 1510 1509 1506 1503 1501 1499 1497 1495 1493
1467 1468 1469 1470 1472 1475 1478 1481 1484 1487 1490 1493 1496 1498 1500 1502 1504 1505 1507 1508 1508 1509 1510 1511 1511 1511 1511 1511 1510 1510 1509 1509 1508 1508 1507 1507 1505 1503 1499 1497 1495 1493 1491
1464 1465 1466 1468 1470 1472 1475 1478 1481 1484 1487 1490 1493 1495 1498 1500 1502 1503 1504 1505 1506 1507 1508 1509 1509 1509 1509 1509 1509 1508 1508 1507 1506 1505 1504 1504 1502 1501 1499 1495 1492 1490 1488
1462 1463 1464 1465 1467 1469 1471 1474 1477 1481 1484 1487 1490 1492 1495 1497 1499 1500 1502 1503 1504 1505 1506 1506 1507 1507 1507 1507 1507 1506 1505 1505 1504 1503 1502 1501 1500 1499 1497 1493 1490 1487 1484
1459 1460 1461 1461 1463 1465 1468 1471 1474 1477 1480 1483 1486 1489 1492 1494 1496 1497 1499 1500 1501 1502 1503 1504 1504 1505 1505 1505 1504 1504 1503 1503 1502 1501 1500 1498 1497 1496 1494 1491 1487 1483 1480
1457 1458 1458 1459 1460 1462 1464 1467 1470 1473 1476 1479 1483 1485 1488 1491 1493 1494 1496 1497 1499 1500 1500 1501 1502 1502 1502 1502 1502 1501 1501 1500 1499 1498 1497 1496 1494 1493 1491 1489 1485 1480 1476
1455 1456 1456 1457 1458 1460 1461 1464 1466 1469 1473 1476 1479 1482 1485 1487 1489 1491 1493 1494 1496 1497 1498 1498 1499 1499 1499 1499 1499 1499 1498 1497 1496 1495 1494 1493 1491 1489 1487 1486 1483 1481 1474
1454 1454 1455 1455 1456 1458 1460 1462 1464 1467 1470 1473 1476 1479 1481 1484 1486 1488 1490 1491 1492 1493 1494 1495 1496 1496 1496 1496 1496 1496 1495 1494 1493 1492 1491 1489 1487 1485 1483 1481 1479 1477 1474
1453 1453 1453 1454 1455 1456 1458 1460 1462 1465 1467 1470 1473 1476 1478 1481 1483 1484 1486 1488 1489 1490 1491 1492 1493 1493 1493 1493 1493 1493 1492 1491 1490 1489 1487 1486 1484 1482 1480 1477 1475 1473 1470
1452 1452 1452 1452 1453 1454 1456 1458 1460 1462 1464 1467 1470 1472 1475 1477 1479 1481 1483 1485 1486 1487 1488 1489 1490 1490 1490 1490 1490 1489 1489 1488 1486 1485 1484 1482 1480 1478 1476 1473 1471 1468 1466
1451 1451 1451 1451 1452 1453 1454 1456 1458 1460 1462 1465 1467 1469 1472 1474 1476 1478 1480 1481 1483 1484 1485 1486 1486 1487 1487 1487 1487 1486 1485 1484 1483 1481 1480 1478 1476 1474 1472 1469 1467 1464 1461
1450 1449 1450 1450 1451 1452 1453 1454 1456 1458 1460 1462 1464 1466 1469 1471 1473 1475 1477 1478 1479 1481 1482 1483 1483 1484 1484 1484 1483 1482 1481 1480 1479 1477 1476 1474 1472 1469 1467 1465 1462 1460 1457
1449 1449 1449 1449 1450 1451 1452 1453 1454 1456 1458 1460 1462 1464 1466 1468 1470 1472 1474 1475 1476 1477 1479 1479 1480 1480 1480 1480 1480 1479 1478 1476 1475 1474 1472 1470 1468 1465 1463 1461 1458 1455 1452
1448 1448 1448 1448 1449 1450 1451 1452 1453 1454 1456 1458 1459 1461 1463 1465 1467 1469 1470 1472 1473 1474 1475 1476 1476 1477 1477 1477 1476 1476 1474 1473 1471 1470 1468 1466 1464 1461 1459 1457 1454 1452 1449
1447 1447 1447 1447 1448 1448 1449 1450 1452 1453 1454 1456 1457 1459 1461 1462 1464 1466 1467 1468 1469 1470 1471 1472 1473 1473 1473 1473 1473 1472 1471 1469 1468 1466 1464 1462 1460 1458 1455 1453 1450 1448 1445
1445 1445 1445 1446 1446 1447 1448 1449 1450 1451 1452 1454 1455 1456 1458 1459 1461 1463 1464 1465 1466 1467 1468 1469 1469 1470 1470 1470 1469 1468 1467 1466 1464 1463 1461 1459 1456 1454 1452 1449 1446 1444 1441
1444 1443 1444 1444 1444 1445 1446 1447 1448 1449 1450 1451 1453 1454 1455 1457 1458 1459 1460 1462 1463 1464 1465 1466 1466 1466 1466 1466 1466 1465 1463 1462 1461 1459 1457 1455 1453 1451 1449 1446 1443 1440 1437
1442 1441 1442 1442 1443 1443 1444 1445 1446 1447 1448 1449 1450 1451 1453 1454 1455 1456 1457 1459 1460 1461 1462 1462 1463 1463 1463 1463 1462 1461 1460 1458 1457 1456 1454 1452 1450 1448 1446 1443 1440 1437 1434
1439 1439 1439 1440 1441 1441 1442 1443 1444 1445 1446 1447 1448 1449 1450 1451 1452 1454 1455 1456 1457 1458 1459 1459 1460 1460 1460 1459 1459 1458 1457 1455 1454 1452 1450 1449 1447 1445 1443 1440 1438 1435 1432
1437 1437 1437 1438 1439 1440 1441 1441 1442 1443 1444 1445 1446 1447 1448 1449 1450 1451 1452 1453 1454 1455 1456 1456 1456 1457 1457 1456 1455 1455 1454 1453 1451 1449 1447 1446 1444 1442 1440 1437 1435 1432 1430
1436 1436 1436 1437 1438 1439 1440 1440 1441 1441 1442 1443 1444 1445 1446 1447 1448 1449 1450 1451 1451 1452 1453 1453 1453 1454 1454 1453 1453 1452 1451 1450 1449 1447 1445 1443 1441 1439 1437 1435 1432 1430 1427
1435 1435 1435 1436 1436 1437 1438 1439 1439 1440 1441 1442 1443 1444 1444 1445 1446 1447 1448 1448 1449 1449 1450 1451 1451 1451 1451 1450 1450 1449 1448 1447 1446 1444 1442 1441 1439 1437 1435 1432 1430 1428 1426
1435 1435 1434 1435 1435 1436 1437 1438 1438 1439 1439 1440 1441 1442 1443 1443 1444 1445 1446 1447 1448 1448 1449 1449 1449 1448 1448 1448 1448 1447 1446 1445 1443 1442 1440 1438 1436 1434 1433 1431 1429 1426 1424
1434 1434 1434 1434 1434 1435 1436 1436 1437 1437 1438 1439 1439 1440 1441 1441 1442 1443 1444 1445 1446 1447 1447 1448 1448 1447 1447 1446 1446 1445 1444 1443 1441 1440 1438 1436 1434 1433 1431 1429 1427 1425 1423